This is the latest recevied weather packets stored in our database for station/object DB0TBG. If no packets are shown the sender has not sent any weather packets the latest 10 day(s).
| Time | Temp. | Humidity | Pressure | Rain* | Wind** | Luminosity | Snow |
|---|---|---|---|---|---|---|---|
| 1777549454 | 15° C | 19% | 987 hPa | 0 mm | 0 m/s | - | - |
| 1777548210 | 14.44° C | 19% | 987 hPa | 0 mm | 0 m/s | - | - |
| 1777547606 | 15° C | 19% | 987 hPa | 0 mm | 0 m/s | - | - |
| 1777547002 | 14.44° C | 17% | 988 hPa | 0 mm | 0 m/s | - | - |
| 1777546402 | 13.89° C | 17% | 987 hPa | 0 mm | 0 m/s | - | - |
| 1777545770 | 13.89° C | 17% | 987 hPa | 0 mm | 0 m/s | - | - |
| 1777545158 | 13.33° C | 20% | 988 hPa | 0 mm | 0 m/s | - | - |
| 1777544558 | 13.33° C | 20% | 988 hPa | 0 mm | 0 m/s | - | - |
| 1777543958 | 13.33° C | 20% | 988 hPa | 0 mm | 0 m/s | - | - |
| 1777543354 | 13.33° C | 20% | 988 hPa | 0 mm | 0 m/s | - | - |
| 1777542742 | 13.33° C | 20% | 988 hPa | 0 mm | 0 m/s | - | - |
| 1777542142 | 13.33° C | 20% | 988 hPa | 0 mm | 0 m/s | - | - |
| 1777541536 | 13.33° C | 20% | 988 hPa | 0 mm | 0 m/s | - | - |
| 1777540937 | 12.22° C | 23% | 988 hPa | 0 mm | 0 m/s | - | - |
| 1777539731 | 11.67° C | 20% | 988 hPa | 0 mm | 0 m/s | - | - |
| 1777539132 | 12.22° C | 20% | 988 hPa | 0 mm | 0 m/s | - | - |
| 1777538533 | 11.67° C | 20% | 988 hPa | 0 mm | 0 m/s | - | - |
| 1777537927 | 11.67° C | 23% | 988 hPa | 0 mm | 0 m/s | - | - |
| 1777537327 | 11.11° C | 21% | 988 hPa | 0 mm | 0 m/s | - | - |
| 1777536727 | 11.11° C | 21% | 988 hPa | 0 mm | 0 m/s | - | - |
| 1777536124 | 10.56° C | 26% | 988 hPa | 0 mm | 0 m/s | - | - |
| 1777535525 | 10° C | 21% | 988 hPa | 0 mm | 0 m/s | - | - |
| 1777534926 | 10.56° C | 24% | 988 hPa | 0 mm | 0 m/s | - | - |
| 1777534324 | 10° C | 26% | 988 hPa | 0 mm | 0 m/s | - | - |
| 1777533725 | 9.44° C | 26% | 988 hPa | 0 mm | 0 m/s | - | - |
* Rain latest hour (hover to see other rain measurements)
** Current wind speed in m/s (hover to see current wind gust speed)